Location: Aalen
(48.8330°N, 10.1000°E)
Time: 06:22:55
(UTC+01:00)

BlueWalker 3 - Pass Details

Date: 04 December 2022
Orbit: 499 x 517 km, 53.2° (Epoch: 28 January)

Event Time Altitude Azimuth Distance (km) Brightness Sun altitude
Rises 19:35:01 0° 295° (WNW) 2,628 6.5 -30.4°
Reaches altitude 10° 19:37:13 10° 295° (WNW) 1,735 5.4 -30.8°
Enters shadow 19:38:30 20° 295° (WNW) 1,236 4.5 -31.0°
